Theta_e
292 292 292 292 292 292 293 293 293 293 293 293 293 293 293 293 293 293 293 292 292 293 294 294 295 297 299 300 305 302 307 305 305 309 312 308 308 307 308 307 308 309 311 311 311 313 312 300 299 306 300 297 298 298
291 292 292 292 292 292 293 293 292 293 293 293 293 293 293 293 293 292 293 292 292 294 294 293 293 294 294 293 295 301 304 305 306 309 307 305 304 303 307 310 302 309 310 310 308 307 295 293 295 294 295 295 293 293
291 290 291 292 292 292 292 292 292 293 292 293 293 293 292 293 293 292 292 292 292 293 294 294 295 292 291 292 291 299 300 301 302 302 304 305 306 302 305 304 303 300 300 301 302 294 293 292 292 293 293 292 291 291
291 291 292 292 292 292 292 292 292 293 293 293 292 292 292 292 293 292 292 292 291 292 294 294 292 292 292 292 292 295 298 299 300 302 304 307 306 301 303 300 301 300 300 295 293 293 292 290 291 290 290 289 289 290
291 291 291 291 292 292 292 292 292 292 292 292 292 292 292 293 292 292 292 291 291 292 295 294 292 291 292 292 295 297 298 299 299 301 301 300 298 300 298 302 301 297 299 304 304 294 295 290 289 289 290 289 289 289
291 291 291 291 291 292 292 292 292 291 292 292 292 292 292 292 292 291 291 291 290 290 293 295 292 292 291 293 293 293 294 295 296 297 296 296 296 300 301 299 294 295 294 294 296 295 291 290 290 289 289 288 288 288
291 291 291 291 291 292 292 291 291 292 292 292 292 292 292 292 292 291 291 290 290 289 293 294 295 293 290 292 294 294 293 294 295 295 295 295 295 297 297 298 295 294 293 294 293 292 293 293 291 288 288 288 287 286
291 291 291 291 291 292 291 291 292 291 292 292 292 292 291 290 290 291 290 290 289 289 293 294 294 294 291 294 294 294 294 294 293 294 294 295 294 295 294 291 291 292 292 292 293 293 291 288 288 287 287 287 287 286
290 291 291 291 292 291 291 291 291 292 292 291 290 288 289 289 290 290 290 290 289 290 293 292 294 295 291 293 293 293 294 293 291 292 292 293 292 291 290 289 290 291 291 291 289 288 288 287 287 287 287 287 286 285
291 291 291 292 291 291 291 291 291 291 291 288 288 288 289 288 289 290 289 291 290 290 291 291 290 292 291 292 292 292 292 293 292 290 290 292 291 290 288 288 287 288 288 289 287 286 287 286 286 286 285 285 286 285
292 292 292 291 291 291 291 291 292 291 288 288 287 289 288 288 289 289 290 290 291 291 290 290 290 291 288 292 290 287 290 290 292 289 291 292 291 289 288 286 286 287 286 287 287 287 287 286 285 285 285 284 284 284
291 291 291 291 291 291 291 291 291 290 289 288 288 288 287 288 289 289 289 289 290 290 289 290 288 288 287 287 288 286 287 289 290 284 291 291 289 287 286 285 285 285 285 285 285 285 285 285 285 285 284 284 284 283
291 290 290 290 290 290 290 290 291 289 286 286 285 286 287 286 287 287 287 288 289 288 289 289 289 287 287 285 285 287 288 287 283 288 289 287 285 285 285 284 284 284 285 284 284 284 284 284 284 284 284 283 283 282
290 290 290 290 290 290 290 289 288 286 286 283 284 285 286 287 287 287 287 287 287 288 287 286 287 286 285 285 284 286 282 282 287 288 287 284 284 284 283 284 284 284 284 284 284 284 284 284 283 282 282 282 282 282
290 290 289 289 290 289 288 287 286 286 284 283 284 286 287 287 288 288 288 288 287 287 285 287 285 285 284 283 282 282 284 285 285 286 285 283 282 283 283 283 283 283 283 283 283 283 282 282 282 282 281 281 281 281
289 287 288 289 289 288 286 287 285 285 282 284 286 285 285 287 287 288 288 288 286 286 285 284 284 285 283 283 283 279 284 284 285 284 283 282 282 283 283 283 283 282 282 282 282 281 281 281 281 280 279 280 280 280
288 288 288 289 288 286 286 286 284 277 283 284 285 285 285 286 287 287 286 286 285 287 286 285 284 282 282 284 284 283 284 284 283 283 283 282 283 283 282 282 282 281 281 281 280 280 279 279 279 279 280 279 279 278
289 288 288 288 287 286 285 283 277 277 281 282 284 284 284 285 285 284 283 284 285 285 284 283 282 282 283 285 285 284 282 282 282 282 282 281 281 281 281 281 280 279 279 278 277 278 278 278 279 279 278 278 278 278
289 288 287 287 286 284 279 281 279 278 279 279 281 282 283 284 283 282 283 284 284 282 283 283 283 283 284 282 283 282 282 283 282 281 279 278 278 278 278 278 278 277 277 277 277 278 277 277 277 277 277 277 278 278
287 287 286 286 285 282 277 278 279 277 279 279 279 279 282 282 281 281 281 282 283 284 283 281 281 280 280 279 279 280 281 282 282 281 280 278 277 277 276 277 277 276 276 276 276 277 277 277 277 277 277 278 277 277
286 285 286 286 283 280 272 271 276 274 276 278 272 275 280 278 280 279 279 280 279 279 280 280 278 277 276 275 275 277 277 279 279 280 280 278 276 276 276 275 275 275 275 275 275 276 276 276 276 276 276 276 276 276
285 284 284 283 278 276 272 270 273 271 275 274 274 272 275 277 276 277 278 278 277 277 277 279 278 277 276 274 274 273 274 276 275 276 276 276 276 276 275 275 275 273 274 275 275 276 276 275 276 276 276 276 276 276
283 282 281 279 276 275 274 271 275 270 277 275 272 276 275 276 275 274 278 278 277 276 275 276 276 275 274 273 273 272 272 273 274 273 273 274 274 274 274 274 274 273 274 275 275 276 275 276 275 276 275 275 275 276
282 277 271 271 272 274 271 272 270 272 271 272 274 275 276 275 272 277 278 278 276 274 274 274 275 275 274 273 272 272 271 271 272 272 272 273 273 273 272 273 273 274 274 274 275 274 274 274 275 275 274 275 275 275
278 276 273 274 269 274 273 273 272 275 277 271 273 278 276 272 275 277 278 276 275 273 272 272 272 272 272 272 272 271 270 269 270 270 272 271 272 273 273 272 273 273 274 274 273 274 274 274 275 275 275 275 276 277
276 274 275 274 273 275 273 274 271 273 274 273 273 274 274 276 274 276 276 273 273 272 271 270 270 271 272 271 271 271 270 270 270 271 272 272 272 271 271 271 272 273 273 273 273 274 274 274 275 275 275 276 277 277
275 273 276 278 278 276 275 273 273 273 271 273 273 273 274 273 275 275 273 271 270 270 268 268 268 268 269 269 271 271 271 271 271 272 273 272 272 272 272 271 271 272 273 273 273 274 274 275 275 275 276 276 277 277
274 274 275 273 273 272 271 270 269 269 272 274 273 270 270 273 275 272 271 270 269 269 269 269 269 270 271 270 271 271 272 272 273 273 273 273 273 273 272 273 273 272 273 273 273 274 274 275 275 276 276 277 277 277
274 275 274 270 270 270 270 271 272 274 273 273 272 272 270 270 269 268 269 269 269 269 269 269 270 271 271 271 271 271 270 270 268 269 270 270 271 271 273 273 272 273 272 272 273 273 274 276 276 276 276 276 277 277
276 275 273 272 272 276 273 271 270 269 269 267 269 270 270 269 269 269 269 270 269 269 268 268 269 269 269 269 269 270 270 269 268 267 267 268 269 272 273 272 272 272 272 272 272 273 273 274 275 275 276 276 276 277
276 276 275 273 272 272 271 269 270 270 265 263 263 267 268 268 269 270 270 270 270 270 269 269 269 269 268 268 267 267 268 269 269 269 269 270 271 273 273 273 272 271 272 272 272 273 273 273 273 274 275 275 276 277
275 274 277 276 273 270 269 270 269 268 267 266 266 263 266 268 268 270 270 270 270 269 270 269 268 268 269 269 269 269 268 268 269 270 269 271 272 273 274 272 271 271 271 272 272 272 272 272 273 273 274 275 276 277
272 272 272 273 271 272 270 270 271 269 268 268 269 268 268 270 270 271 270 270 270 269 269 269 269 270 270 270 270 270 269 269 270 270 269 271 272 274 273 271 270 271 271 272 272 272 272 272 273 273 274 275 276 277
Wind_Speed
27 28 28 28 28 28 28 27 28 27 25 24 22 22 20 19 21 18 18 18 10 7 15 22 15 12 9 6 6 2 4 2 3 4 3 3 3 5 4 7 8 7 7 4 3 4 7 5 5 6 3 5 11 14
28 29 28 28 28 28 27 27 27 28 25 24 22 20 20 20 19 19 14 15 14 6 9 30 28 23 16 5 4 4 2 3 2 3 1 3 3 3 6 6 1 5 5 7 3 2 3 4 3 4 6 14 12 17
29 28 28 28 28 27 27 27 28 28 26 23 19 19 20 18 19 20 18 16 10 4 8 6 5 6 11 12 8 4 1 1 1 1 2 2 4 1 4 3 5 1 1 4 6 3 5 6 8 11 12 16 18 18
28 29 28 27 27 27 28 27 28 25 24 21 19 20 22 21 20 22 20 18 11 4 5 4 3 6 9 10 10 10 5 1 2 1 2 2 3 2 2 4 3 1 3 7 5 6 11 9 11 16 18 18 18 17
29 28 28 28 27 28 27 26 24 22 22 21 21 22 24 22 21 23 27 27 23 7 3 5 5 4 9 9 9 7 3 3 2 2 3 2 2 2 1 2 3 4 3 2 3 11 6 10 13 18 20 19 19 19
30 29 28 26 27 27 24 24 22 22 25 23 24 24 23 21 20 15 4 2 5 9 3 3 1 2 6 6 10 8 3 3 2 2 3 2 2 1 3 3 4 4 5 2 6 7 16 17 15 16 19 16 14 13
26 25 25 26 26 26 24 25 24 23 25 26 27 24 23 22 19 6 5 6 11 6 3 2 2 1 4 2 2 3 5 3 3 2 3 2 3 4 3 3 2 7 9 13 18 22 17 15 13 13 15 18 18 16
26 26 26 26 27 27 22 24 22 24 26 26 25 25 21 14 8 7 9 7 7 4 2 2 1 1 5 2 2 4 3 2 5 3 2 3 2 3 4 6 7 9 12 12 12 12 15 15 15 13 18 16 12 10
24 25 26 27 27 22 23 24 24 25 25 26 24 18 3 1 1 3 14 11 3 2 1 0 1 1 5 3 3 3 2 4 3 4 3 2 4 6 6 9 11 6 6 14 18 18 15 15 13 12 11 10 10 7
21 24 26 25 21 23 23 23 24 23 27 20 9 3 1 1 14 11 0 1 0 1 1 2 2 1 3 2 3 2 3 3 3 4 3 4 4 5 7 5 6 10 14 19 16 13 15 13 11 9 9 7 8 7
20 22 21 22 23 23 23 23 20 24 12 7 4 2 9 14 3 2 2 2 2 1 2 2 4 1 4 3 2 3 2 2 3 3 3 3 3 4 8 7 8 10 10 11 14 13 12 12 10 9 7 8 7 6
19 18 20 22 23 24 24 23 23 20 12 8 9 8 5 4 3 3 3 3 3 4 4 2 3 3 2 2 2 3 3 1 4 1 3 3 2 3 3 7 10 12 15 14 19 15 15 13 10 10 8 7 5 3
18 18 20 24 28 29 27 25 23 20 12 1 1 2 3 4 6 5 7 2 4 5 4 3 3 2 1 3 4 2 5 4 0 4 3 2 2 4 5 9 12 15 18 18 15 14 13 11 9 8 6 4 2 1
17 17 23 26 34 32 26 25 20 13 4 3 4 7 4 4 4 2 3 3 2 2 5 3 1 2 2 3 2 5 2 2 4 3 3 2 2 4 6 7 10 10 11 12 12 11 10 9 7 6 4 2 1 2
23 18 22 33 37 33 26 20 17 10 6 4 4 5 4 4 3 4 3 1 4 3 2 1 1 2 4 4 4 3 3 5 4 3 3 4 5 7 8 8 9 8 8 8 8 8 7 5 5 4 4 3 3 2
25 14 20 34 35 31 26 12 12 6 5 4 6 4 7 4 7 7 7 6 4 5 1 1 2 3 6 3 5 4 3 4 3 3 4 5 7 8 8 8 10 10 10 8 7 6 5 5 4 3 3 2 2 2
17 13 29 32 33 21 20 6 7 6 4 5 4 3 5 3 4 6 7 8 8 2 3 2 6 3 1 4 4 4 4 5 6 6 5 7 9 8 8 11 10 9 8 7 5 5 4 4 4 3 4 4 4 5
17 25 25 29 28 12 7 12 5 4 6 3 3 7 5 5 8 7 8 7 5 3 3 3 3 8 5 4 4 3 5 5 6 7 7 7 10 11 11 10 9 8 7 7 6 5 5 5 5 5 4 5 6 5
21 18 23 24 17 5 4 7 6 3 2 2 5 5 3 4 7 8 7 8 4 2 4 3 7 5 5 5 5 3 2 3 5 5 6 11 12 11 10 9 8 7 6 5 6 6 5 4 4 4 5 5 5 6
16 12 21 19 13 4 5 3 5 3 3 3 3 5 4 4 7 7 12 11 7 4 9 6 6 4 4 5 5 3 3 5 6 6 6 6 9 9 10 8 7 7 6 6 5 5 4 5 4 5 6 6 7 8
9 19 12 13 6 10 4 3 3 1 3 2 4 3 3 3 6 8 7 8 6 5 5 6 6 6 11 10 10 10 12 11 5 3 3 3 6 8 8 9 8 7 7 6 6 6 6 7 8 7 8 8 8 7
8 14 7 8 6 5 4 5 1 3 1 1 2 3 3 3 4 5 4 7 4 4 4 5 6 6 6 10 12 13 10 11 12 12 12 7 4 6 8 9 8 7 6 5 5 7 9 9 9 8 8 9 9 9
10 8 5 11 5 6 3 6 4 6 3 4 2 4 3 3 2 4 3 3 3 8 10 7 7 10 10 10 13 16 15 11 11 11 9 6 6 6 7 8 7 6 7 7 8 9 9 10 9 8 9 8 8 8
9 6 5 4 4 2 2 5 2 3 3 4 3 3 4 3 4 3 3 2 3 9 11 13 11 4 5 8 11 13 14 10 6 7 11 9 8 7 8 8 8 7 6 8 11 10 10 9 10 10 9 8 8 6
6 7 5 6 3 5 6 5 5 4 3 3 3 3 3 3 3 3 2 2 3 5 6 9 8 9 4 3 7 9 12 11 7 3 5 9 8 10 13 14 11 9 7 13 13 12 12 11 10 9 9 8 8 9
5 4 3 2 3 3 1 3 3 3 2 3 2 2 2 2 4 3 1 3 3 3 6 7 6 4 5 8 6 12 14 15 8 3 5 8 8 8 8 10 12 12 12 19 16 14 13 12 12 12 10 9 9 8
4 3 2 3 1 2 2 2 2 3 3 3 3 3 3 4 2 1 1 3 3 5 9 7 5 5 5 7 8 13 15 13 7 3 3 5 4 7 10 11 14 17 23 21 18 17 15 13 12 12 12 12 9 7
2 1 2 4 2 2 2 2 2 1 1 2 1 4 3 2 2 1 2 5 9 9 7 3 5 6 4 3 5 11 17 16 8 4 4 6 7 4 16 22 20 18 19 19 17 15 14 14 16 16 13 12 11 8
2 1 1 4 2 3 2 1 0 1 2 0 2 2 2 2 1 2 3 9 8 8 8 7 7 6 5 4 4 4 8 18 15 5 7 5 9 12 24 25 23 22 23 21 18 14 14 14 12 12 12 11 11 9
2 1 2 2 2 2 1 1 1 0 3 2 1 3 2 2 3 4 4 7 9 10 10 8 6 7 6 7 8 7 3 6 16 11 5 6 14 25 27 27 22 26 23 21 20 19 15 14 12 8 7 6 6 6
2 0 2 2 2 1 1 2 1 2 3 2 4 3 2 0 0 3 8 6 7 8 11 15 11 7 7 8 8 9 7 5 15 14 13 17 21 24 26 21 26 23 20 20 19 18 17 17 14 11 10 8 5 4
2 2 1 2 1 1 2 1 1 2 2 3 2 2 2 2 2 1 5 8 6 10 10 13 14 11 6 7 5 4 7 12 16 16 18 20 22 23 22 28 24 20 19 19 17 17 16 15 14 12 11 9 7 5
1 1 2 2 2 1 2 2 3 2 3 2 2 1 0 0 2 1 2 5 8 7 12 17 15 5 6 7 2 6 12 15 13 13 15 15 16 19 23 25 22 19 17 17 16 16 16 16 15 14 12 10 8 4
Wind_Direction
317 320 318 315 316 316 313 315 318 317 312 307 306 303 296 297 299 302 289 299 279 275 278 270 286 291 287 279 289 238 141 288 129 182 184 147 136 178 124 143 164 156 153 177 161 203 229 147 115 194 105 104 135 138
316 316 314 315 317 316 315 316 318 317 314 312 306 299 297 296 300 303 295 294 306 269 281 283 281 261 239 253 289 291 337 117 110 120 228 128 125 154 142 170 226 157 170 166 214 119 59 38 40 110 128 131 129 124
319 316 314 314 313 315 314 319 318 316 315 310 305 302 304 304 298 299 293 296 304 275 278 253 251 240 243 244 244 286 341 50 120 87 127 98 116 188 146 145 114 84 27 95 152 55 73 79 84 106 121 121 118 116
316 317 318 319 319 318 317 317 320 318 314 312 311 308 309 301 298 299 293 283 269 276 276 292 322 268 278 278 263 254 293 185 76 55 109 113 115 337 76 96 93 14 115 115 84 112 102 72 110 118 110 109 109 110
316 318 318 318 319 320 319 319 322 323 322 319 313 308 306 305 299 303 297 284 251 218 290 303 300 283 318 288 258 248 220 44 27 73 60 73 80 103 53 95 78 359 99 155 111 166 91 123 121 120 113 114 115 112
317 318 318 319 319 320 321 321 318 318 318 315 309 306 306 303 310 322 303 27 336 212 262 258 344 303 341 72 71 59 53 53 60 73 70 67 38 30 87 76 15 11 39 356 126 103 110 117 109 111 111 109 103 102
327 326 324 323 323 322 319 320 316 314 316 312 310 307 305 302 295 248 246 304 316 219 252 267 264 11 316 336 49 54 30 48 60 79 60 48 33 35 58 81 44 49 91 105 117 112 95 103 114 103 103 102 99 100
326 327 327 327 325 327 325 324 322 318 316 315 313 309 304 297 280 249 253 288 281 238 256 267 294 267 357 38 71 9 59 32 31 66 49 33 39 53 66 27 63 77 88 73 97 105 111 118 110 103 112 115 104 100
321 325 327 328 331 333 330 326 326 323 320 317 313 311 264 318 296 282 310 275 282 276 273 306 254 88 343 50 52 45 39 65 39 45 37 27 32 48 30 95 98 107 83 115 109 110 113 110 113 113 109 102 105 105
317 323 327 332 337 334 333 330 329 329 328 320 324 10 311 280 313 300 101 197 33 20 2 29 357 38 349 36 61 68 32 51 69 40 337 53 55 46 21 12 81 119 129 128 115 120 120 114 116 106 97 95 105 110
333 335 342 342 337 334 332 331 338 336 333 350 356 319 310 326 335 25 45 16 345 71 11 34 22 61 14 59 86 20 83 34 76 30 46 69 51 2 348 59 65 93 100 93 100 102 106 114 117 115 107 102 102 100
7 5 3 2 359 351 346 342 340 342 317 288 296 298 313 1 20 20 13 356 11 23 360 27 26 30 34 357 94 18 87 46 82 348 73 75 41 326 69 70 78 93 92 88 98 102 101 98 100 103 104 105 100 94
8 9 2 357 353 345 341 338 334 330 327 48 30 19 354 344 32 20 357 358 349 349 1 17 52 17 42 49 71 68 68 65 204 48 70 45 10 55 78 96 83 86 90 92 88 90 94 93 85 86 96 87 64 360
344 349 354 352 351 347 342 341 342 349 16 57 26 20 34 5 358 324 309 299 306 323 10 354 38 43 12 61 20 78 58 160 76 70 78 96 101 96 82 84 91 82 82 86 86 88 89 92 88 79 74 61 345 321
346 332 343 352 347 346 346 352 359 31 45 47 29 32 9 320 287 294 316 315 3 324 333 222 78 52 31 73 36 114 73 64 43 83 97 126 118 110 94 85 85 86 83 82 84 85 81 72 65 63 39 13 343 330
345 339 345 342 343 345 349 1 25 35 49 47 36 3 331 337 353 6 357 358 348 336 242 16 76 62 46 40 52 26 73 55 95 91 113 117 100 92 91 85 81 82 82 82 71 65 68 53 34 10 3 33 351 325
337 344 334 338 342 347 360 29 27 40 54 27 353 325 333 302 330 342 345 341 322 330 39 27 47 30 301 50 47 22 57 96 107 96 86 89 96 92 87 84 80 76 71 67 68 55 43 26 17 17 4 0 349 328
333 337 340 341 347 353 21 28 65 55 39 358 347 344 337 353 355 3 340 340 3 25 29 68 95 34 50 50 61 77 77 81 78 88 85 81 82 77 76 75 64 58 56 47 33 28 23 17 12 357 335 327 323 320
333 336 342 347 355 17 47 27 33 79 3 323 320 341 334 1 7 357 360 7 29 74 98 50 56 27 53 46 81 89 94 99 105 87 74 63 64 66 65 65 61 52 49 34 21 14 7 357 335 326 316 314 307 308
338 336 350 356 12 57 50 14 27 64 34 332 344 348 345 10 345 6 24 18 11 35 40 44 38 27 40 38 27 43 55 110 113 101 81 62 57 62 54 52 44 30 30 21 20 12 358 352 349 334 322 313 317 307
339 345 354 5 43 54 83 357 53 46 326 44 332 358 337 345 14 14 18 357 39 29 50 51 57 51 48 44 40 50 52 62 58 54 94 92 57 58 48 39 30 26 18 5 358 350 355 340 327 330 329 321 314 305
326 340 342 19 63 44 79 25 41 324 36 344 25 3 22 15 354 17 339 32 49 21 9 16 41 47 48 41 36 38 42 66 65 66 63 73 54 38 28 16 12 6 356 349 342 336 333 332 330 324 321 319 315 313
346 0 38 21 64 38 312 2 54 3 46 345 11 38 18 360 342 322 62 44 54 11 8 13 39 56 59 50 53 45 41 51 60 52 47 60 66 44 23 8 1 353 348 353 346 334 327 328 331 329 323 325 323 319
4 42 41 42 38 351 348 18 25 27 41 22 32 25 7 340 329 57 68 57 35 11 20 17 27 39 30 37 41 32 21 30 61 64 44 42 43 24 8 359 0 354 346 339 333 328 327 327 331 331 329 320 315 311
59 349 53 355 343 28 26 5 356 30 41 352 46 23 353 350 64 58 60 29 5 11 8 5 26 39 42 18 32 26 24 23 16 18 32 28 31 21 14 6 357 353 352 343 337 330 326 326 325 323 322 317 311 315
63 316 59 334 324 57 355 33 23 359 12 23 7 298 0 69 62 53 35 351 343 354 354 353 355 356 23 24 6 6 359 2 8 57 34 20 23 12 344 344 340 338 342 342 324 321 320 322 319 321 317 319 320 324
52 323 332 24 332 89 55 46 38 72 48 26 337 5 44 67 76 106 100 25 333 331 330 328 332 334 322 341 7 10 11 9 1 328 21 19 8 356 346 329 325 329 339 332 330 325 314 312 310 310 309 312 309 300
143 54 24 318 49 13 116 48 53 49 308 324 18 36 108 135 120 50 18 344 340 341 347 16 6 347 338 346 2 15 24 26 34 24 253 349 12 354 353 357 352 336 335 334 329 328 324 316 310 308 302 297 296 291
49 334 136 22 22 46 54 93 122 29 356 7 102 105 118 59 15 356 352 354 6 20 34 29 16 26 24 11 358 344 9 20 20 17 16 357 345 347 354 354 353 349 340 346 343 336 330 322 318 309 298 289 287 277
360 358 85 57 75 48 1 9 149 268 54 87 88 99 79 63 43 29 19 20 27 26 20 10 4 15 10 6 351 359 322 357 17 13 333 328 324 338 345 347 345 339 347 349 349 349 347 342 344 339 326 313 296 273
342 302 86 64 104 53 8 341 15 65 52 53 28 90 94 134 218 21 25 31 32 25 17 16 16 7 356 357 352 347 350 349 349 351 348 337 339 342 341 341 339 343 348 350 350 351 348 350 350 348 344 334 318 293
4 43 93 111 108 320 41 63 42 67 18 50 22 56 27 52 30 324 30 25 11 16 13 2 355 343 343 340 340 343 323 332 339 345 349 345 343 340 342 337 342 349 349 350 355 355 356 355 353 352 347 341 328 297
58 55 50 99 68 41 354 71 32 61 38 57 35 28 89 114 167 286 299 359 7 2 357 354 348 340 355 343 310 345 347 343 342 340 338 339 338 342 339 339 345 345 347 351 355 359 0 1 1 359 357 353 343 308